Regional Weather Roundup
Issued by NWS Cleveland, OH

Home | Current Version | Previous Version | Graphics & Text | Print | Product List | Glossary On
Versions: 1 2 3 4 5 6 7 8 9 10 11 12 13 14 15 16 17 18 19 20 21 22 23 24 25 26 27 28 29 30 31 32 33 34 35 36 37 38 39 40 41 42 43 44 45 46 47 48 49 50
000
ASUS41 KCLE 170510
RWRCLE
OHIO REGIONAL WEATHER ROUNDUP
NATIONAL WEATHER SERVICE WILMINGTON, OH
1200 AM EST SUN DEC 17 2017

NOTE: "FAIR" INDICATES FEW OR NO CLOUDS BELOW 12,000 FEET WITH NO
SIGNIFICANT WEATHER AND/OR OBSTRUCTIONS TO VISIBILITY.

OHZ001>008-015>018-024>027-034-035-043-044-170600-
   NORTHWEST OHIO

CITY           SKY/WX    TMP DP  RH WIND       PRES   REMARKS
DEFIANCE       MOCLDY    27  24  89 NE5       30.14R FOG     WCI  22
FINDLAY        FAIR      30  25  81 E5        30.13R WCI  25
TOLEDO EXPRESS CLOUDY    29  28  96 E7        30.14S WCI  22
TOLEDO EXEC    MOCLDY    30  26  85 NE6       30.16R WCI  24
LIMA           FAIR      36  27  69 S7        30.12R
$$

OHZ009>014-019>023-028>033-038-089-170600-
   NORTHEAST OHIO

CITY           SKY/WX    TMP DP  RH WIND       PRES   REMARKS
CLE-HOPKINS    FAIR      32  28  85 E7        30.16S WCI  26
CLE-LAKEFRONT  FAIR      31  27  85 S3        30.14S
CUY CO. ARPT   NOT AVBL
LORAIN-ELYRIA  FOG       25  21  85 E5        30.15R VSB 1/4 WCI  19
ASHTABULA      FOG       24  22  91 CALM      30.15S VSB 3/4
AKRON-CANTON   FAIR      31  24  75 S3        30.12R
WOOSTER        FAIR      27  23  85 SW5       30.13R WCI  22
MANSFIELD      FAIR      33  25  72 SW6       30.12R WCI  28
YOUNGSTOWN     FAIR      25  23  92 E6        30.13R WCI  18
$$

OHZ042-051>053-060>062-070>072-077>081-170600-
  SOUTHWEST OHIO

CITY           SKY/WX    TMP DP  RH WIND       PRES   REMARKS
CINC-COVINGTON FAIR      40  30  67 SW7       30.17R
CINC-LUNKEN    FAIR      32  27  81 CALM      30.20R
HAMILTON       FAIR      30  25  81 E3        30.18R
DAYTON         FAIR      37  28  70 S9        30.16R
WRIGHT-PAT AFB FAIR      29  26  88 CALM      30.16R
DAYTON GENERAL FAIR      36  27  69 S7        30.16R
WILMINGTON     FAIR      34  29  82 SW10      30.17R WCI  26
$$

OHZ036-037-039>041-045>050-054>059-063>069-073>076-082>088-170600-
  CENTRAL AND SOUTHEAST OHIO

CITY           SKY/WX    TMP DP  RH WIND       PRES   REMARKS
COLUMBUS       FAIR      35  27  72 S5        30.17R
OSU AIRPORT    FAIR      34  28  79 S6        30.16R WCI  29
BOLTON FIELD   FAIR      32  26  80 S5        30.17R WCI  27
RICKENBACK AFB FAIR      31  27  83 S7        30.18R WCI  25
NEWARK         FAIR      26  23  88 CALM      30.16R
MARION         FAIR      31  24  75 S7        30.13S WCI  24
LANCASTER      FAIR      26  22  84 S3        30.18R
ZANESVILLE     FAIR      27  22  81 SW3       30.17R
NEW PHILLY     FAIR      27  24  89 SE5       30.16R WCI  22
$$



USA.gov is the U.S. government's official web portal to all federal, state and local government web resources and services.